Tracking 28091 objects as of 30-Sep-2023
HD Live streaming from Space Station
objects crossing your sky now

STARLINK-3757

Track STARLINK-3757 now!
10-day predictions
STARLINK-3757 is classified as:


NORAD ID: 52539
Int'l Code: 2022-051G
Perigee: 546.0 km
Apogee: 547.6 km
Inclination: 53.2 °
Period: 95.4 minutes
Semi major axis: 6917 km
RCS: Unknown
Launch date: May 13, 2022
Source: United States (US)
Launch site: AIR FORCE WESTERN TEST RANGE (AFWTR)
Your satellite tracking list
Your tracking list is empty




NASA's NSSDC Master Catalog

Two Line Element Set (TLE):
1 52539U 22051G   23272.18032203  .00019668  00000-0  12492-2 0  9999
2 52539  53.2159 175.7496 0001187  97.3995 262.7132 15.08874661 76708
Source of the keplerian elements: AFSPC